ATLAS 5 CENTAUR DEB, 43991

Orbit data source: Space-Track

ATLAS 5 CENTAUR DEB, 43991 is space debris in HEO originally from a launch on Wed, 17 Sep 2014 UTC launched from the Air Force Eastern Test Range (AFETR). Debris objects in space refer to the collection of defunct objects orbiting the Earth. Examples of debris include non-operational satellites, rocket bodies, and fragments generated from explosions, collisions, or faulty payload assembly.

Loading next visibility...
Identifier
43991, 2014-055AW
Orbit
HEO
Country
Flag of USUS
Related business
Flag of USUnited Launch Alliance/Lockheed Martin (US)
Manufacturer
Unknown
Mission
Spacecraft
Bus & Motor
Unknown
Mass
Unknown
Launch date (UTC)
2014-09-17 (12 years ago)
Launch vehicle
Unknown
Launch site
Air Force Eastern Test Range (AFETR)
Object type
Payload
Rocket body
Debris
Shape & HBR
Unknown shape, 1.1 m
Radar Cross Section
Medium (>0.1 m² and <1 m²)

Expand to show TLE details & history
Last TLE update: 4 days ago

TLE from 4 days ago
0 ATLAS 5 CENTAUR DEB
1 43991U 14055AW  26235.17961343 -.00000082  00000-0  00000-0 0  9994
2 43991  19.6114 166.8979 4622149 126.9082 284.9127  1.82441197 52548
Epoch: 2026-08-23T04:18Z
TLE epoch observation values (Epoch: 2026-08-23T04:18:38.600Z)
Latitude
0.00002°
Longitude
130.6787°
Altitude
24,450.365 km
Speed
3.431 km/s
True Right ascension
11h 07m 16s
True Declination
0° 00' 00"
Sunlit
Object was in daylight at epoch
Visualization orbit readout
Latitude
Unknown
Longitude
Unknown
Altitude
Unknown
Speed
Unknown
Apparent Right ascension
Unknown
Apparent Declination
Unknown
Sunlit
N/A
Visualization observer readout
Local Sidereal Time
09:19:29
Azimuth
Unknown
Elevation
Unknown
Doppler factor
Unknown
Orbital elements
Apogee altitude
34,992.593 km
Perigee altitude
8,837.521 km
Semi-major axis
28,293.194 km
Eccentricity
0.46221
Inclination
19.6114°
RAAN
166.8979°
Arg. of periapsis
126.9082°
True anomaly
233.06042°
Mean anomaly
284.9127°
Eccentric anomaly
258.92311°
Mean motion
0.45606 °/min
Orbital period
789.37 mins
BSTAR
0
Loading maneuver chart data...
Computing Atmospheric mass density...

Documentation

Showing up to 5 results
|